Location: Moscow Pond
(43.6842°N, 73.2366°W)
Time: 00:53:48
(UTC+00:00)

Timation 2 Rocket - Pass Details

Date: 08 November 2025
Orbit: 904 x 1075 km, 70.0° (Epoch: 05 December)

Event Time Altitude Azimuth Distance (km) Brightness Sun altitude
Rises 00:17:00 0° 199° (SSW) 3,811 7.3 -29.4°
Reaches altitude 10° 00:19:35 10° 198° (SSW) 2,876 6.6 -29.9°
Enters shadow 00:24:54 57° 182° (S) 1,246 4.4 -30.8°
